Airfield :
LOGIN :

Register | Disclaimer

   EN    FR    IT 

 










Legend :    VFR   Marginal VFR   IFR   Intensive IFR   Very Intensive IFR
Visi :
Ceiling :
>= 8 km
>= 3000ft
5 to 8 km
1000 to 3000 ft
1500m to 5 km
500 to 1000 ft
800 to 1500m
200 to 500 ft
< 800m
< 200 ft
Symbols :   Thunderstorms  Fog  Heavy snow  Heavy precipitations  Wind > 20 kt
SIGMETs :     Misc.  Thunderstorms  Icing  Turbulence  Mountain Waves  Volcanic Ashes







- Airport Elevation : 939 ft


LKKB - Kbely Air Base

CURRENT METAR :
  • 250800Z 10008KT 020V140 9999 FEW035 BKN057 19/11 Q1020 NOSIG

EXPIRED METARs :
  • 250700Z 04003KT 020V080 CAVOK 17/11 Q1019 NOSIG
  • 250600Z 05003KT CAVOK 17/13 Q1019 NOSIG

TAF TAF LKKB
Valid from the 25 at 06:00 until the 26 at 06:00 UTC


250500Z 2506/2606 05006KT 9999 SCT040
TEMPO 2506/2520 SCT040
PROB30
TEMPO 2506/2520 8000 SHRA SCT030TCU
BECMG 2510/2516 06008KT
BECMG 2520/2522 VRB02KT
No reported NOTAMs for that airfield.



MET'MAP, your aeronautical weather chart ! - Copyright ORBIFLY December 2007 - Disclaimer

ORBIFLY MET'MAP TEAM :

Programming & Development : Alexandra Zaïnal
Concept & Development : Baudouin d'Aumeries
Co-Development & Prog : Marc-Olivier Méhu
Technical & hardware support : Manuel Goepfert

Contact : metmap@orbifly.com




SOURCES & CREDITS :

   NOAA